Погода в Обояни

Погода в Обояни : погода сейчас, прогноз погоды и архив. Всё, что Вы хотите узнать о погоде в Обояни!

Хотите узнать прогноз погоды в Обояни? Тогда Вам сюда: Погода в Обояни

Поиск расширенной информации на нашем сайте:

Другие новости

Новости СМИ2

Главная страница сайта

Новости сайта

03.07.2017

Напоминаем, что на нашем специализированном сайте Метеоцентр.Азия вы можете получить высокодетализированные автоматические прогнозы погоды по пунктам России, СНГ и мира в авиационном формате (включающие направление и скорость ветра, видимость, явления погоды, количество и форму облачности, нижнюю и верхнюю границу облачности).

Рекомендуем: Самая подробная информация Ремонт стига на сайте.

Погода в Обояни - сегодня

Время (UTC), дата Ветер
(°,м/с) 
Видим.   Явления Облачность Т
(°С)
Тd
(°С)
f(%) Тe
(°С)
Pmin
(гПа)
dP
(гПа)
Po
(мм)
O2
(г/м3)
Тmin Tmax R s Состояние
почвы
03 15.08.17 040 (СВ) 10 км    5/0 верхняя 
[Ci sp]
+18.4 +13.7 74 +27  1018.1  0.9  747  279  +18         
06 15.08.17 060 (СВ) 10 км    5/3 1000 м средняя, верхняя 
[Cu med, cong|Ac cast|Ci fib]
+23.2 +15 60 +32  1018.7  747  274  +18         
09 15.08.17 060 (СВ) 10 км    3/0 верхняя 
[Ci fib]
+28.7 +12.8 38 +34  1018.7  0.4  748  270           
12 15.08.17 050 (СВ) 10 км    8/8 600 м кучево-дожд. 
[Cb calv]
+28.4 +13.7 41 +35  1018.5  -0.2  748  270           
15 15.08.17 050 (СВ) 10 км    6/0 средняя 
[Ac trans]
+27.9 +13.7 42 +34  1018.7  0.2  748  271           
21 15.08.17 070 (В) 10 км    ясно 
+21.1 +16 73 +32  1021.2  0.4  749  277           
00 16.08.17 050 (СВ) 10 км    ясно 
+19 +15.5 80 +31  1021.7  0.4  749  279           
03 16.08.17 050 (СВ) 10 км    ясно 
+17.4 +15.2 87 +28  1022.5  0.6  750  281  +17.2         
06 16.08.17 070 (В) 10 км    ясно 
+21.8 +15.6 68 +32  1022.6  0.5  750  277  +17.2         
09 16.08.17 060 (СВ) 10 км    4/4 1000 м 
[Cu hum]
+26.6 +14.5 47 +34  1022.1  -0.1  750  273           
12 16.08.17 070 (В) 10 км    3/3 1000 м 
[Cu hum]
+28.7 +11.6 35 +32  1020.9  -1.1  749  271           
15 16.08.17 060 (СВ) 10 км    3/3 1000 м 
[Cu med, cong]
+28.5 +10.6 33 +30  1020.5  -0.4  749  271           
18 16.08.17 тихо ()   10 км    ясно 
+21 +14.7 67 +29  1021.5  0.4  749  277    +29.7       
21 16.08.17 050 (СВ) 10 км    ясно 
+19.1 +14.5 75 +29  1021.8  0.2  749  279           
00 17.08.17 050 (СВ) 10 км    ясно 
+18.1 +13.9 76 +26  1021.8  -0.1  749  280           
03 17.08.17 050 (СВ) 10 км    4/0 средняя 
[Ac cast]
+16.7 +14.6 87 +26  1022.2  0.3  750  282  +16.5         
06 17.08.17 070 (В) 10 км    3/0 верхняя 
[Cc]
+23.4 +13.7 54 +30  1022.3  0.6  750  276  +16.5         
09 17.08.17 110 (В) 10 км    ясно 
+28.9 +9.2 29 +29  1021.8  -0.1  750  272           
12 17.08.17 050 (СВ) 10 км    4/4 600 м 
[Cu med, cong]
+30 +7.1 24 +30  1020.8  -1  749  271           
15 17.08.17 070 (В) 10 км    3/3 600 м 
[Cu med, cong]
+28.8 +7.6 26 +29  1020.1  -0.7  749  272           
18 17.08.17 тихо ()   10 км    ясно 
+20.8 +11.4 55 +24  1021.2  0.5  749  278    +30.6       
21 17.08.17 040 (СВ) 10 км    ясно 
+19 +10.9 59 +23  1021.4  749  280           
00 18.08.17 040 (СВ) 10 км    ясно 600 м 
+18 +11.4 65 +22  1021.4  749  281           
03 18.08.17 040 (СВ) 10 км    4/0 средняя 
[Ac trans]
+17.2 +11.1 67 +22  1021.5  749  282  +17         
06 18.08.17 070 (В) 10 км    ясно 
+22.9 +12.6 52 +28  1021.6  0.6  750  276  +17         
Время (UTC), дата Ветер
(°,м/с) 
Видим.   Явления Облачность Т
(°С)
Тd
(°С)
f(%) Тe
(°С)
Pmin
(гПа)
dP
(гПа)
Po
(мм)
O2
(г/м3)
Тmin Tmax R s Состояние
почвы

Для получения пояснительной информации подведите курсор к названию столбца.

ПОГОДА в Обояни - архив

Всё, что Вы хотите узнать о погоде в Обояни - удобно и подробно!

Выберите нужную дату (начиная с 1 января 2015* года) и нажмите кнопку "Найти".
Будут отображены архивные сводки погоды по пункту Обоянь, начиная с указанной даты.


Отображать данные в формате CSV (для использования в таблицах Excel)


Внимание! Наш архив погоды предназначен исключительно для личного некоммерческого использования в познавательных целях. Если Вам необходимы официальные справки о состоянии погоды (для производственных, юридических, коммерческих и т.п. целей), обращайтесь в органы Росгидромета.

*Примечание: данная дата относится к архиву по метеостанциям СССР (Россия, СНГ, Балтия).
Архив по метеостанциям Зарубежной Европы и Азии (кроме Китая) хранится 10 дней, по другим регионам земного шара (Китай, Африка, Америка, Австралия, Океания) - 1 день.

Обоянь - район местоположения метеостанции


Название, широта, долгота, высота метеостанции:
Обоянь 51.2°ш. 36.3°д. 192 м над ур. моря [Российская Федерация]

Дополнительная информация

В oтличие oт бoльшинства пoгoдных сайтoв мы публикуем пoдрoбную метеoинфoрмацию в детальнoм прoфессиoнальнoм фoрмате.

Характеристики температуры и влажнoсти вoздуха измеряются на высoте 2 м в тени вдали oт зданий и деревьев.
Скoрoсть ветра измеряется на высoте 10 м (на урoвне рoста челoвека скoрoсть ветра ниже в 1.5-2 раза). Если метеoстанция нахoдится в гoрoде или в лесу, тo скoрoсть ветра занижена на 2-4 м/с пo сравнению с oткрытым местoм. Скoрoсть ветра над акватoриями крупных рек и oзёр, а также на вершинах хoлмoв на 2-5 м/с выше, чем в oбычных услoвиях.
Атмoсфернoе давление в разных тoчках местнoсти мoжет значительнo oтличаться oт давления на метеoстанции, в зависимoсти oт услoвий рельефа (при пoдъёме на 10 м давление пoнижается примернo на 1 мм рт.ст.).